GFSNGP_700_temp_021.txt.gz
Temp
6 8 10 10 12 15 14 15 15 15 15 16 17 17 17 18 18 18 19 19 18 18 17 18 18 18 18 18 18 17 16 15 16 15 15 15 15 14 14 14 14 13 13 13
5 7 9 10 12 13 14 15 15 15 15 16 17 17 17 17 17 18 18 19 19 18 18 18 18 18 18 18 18 17 17 16 16 15 15 15 15 15 14 14 14 14 14 13
3 7 9 10 12 13 13 14 16 16 16 16 17 17 17 17 17 18 18 18 18 18 18 17 18 18 18 18 18 17 17 16 16 16 15 16 15 15 15 15 15 14 14 14
1 6 6 12 13 13 14 14 16 16 16 17 17 17 18 17 17 18 18 18 18 18 18 18 18 18 18 18 18 18 17 17 17 16 16 16 15 15 15 15 15 15 14 14
2 5 8 12 13 14 14 14 15 16 17 17 17 17 17 17 17 17 18 18 18 17 17 18 18 18 19 19 18 18 17 17 17 16 16 16 16 15 15 15 15 15 14 14
3 4 5 11 13 15 15 15 16 16 16 17 17 16 17 18 18 17 17 18 18 18 18 18 18 18 18 18 19 18 18 17 17 17 16 16 16 16 15 15 15 14 14 13
2 3 5 9 12 12 12 15 16 16 16 16 16 17 17 18 17 18 17 17 17 18 18 18 18 18 18 18 18 18 18 18 18 18 17 16 15 15 15 15 14 14 14 13
1 3 4 8 10 12 13 14 16 16 16 16 16 16 17 17 17 18 17 17 17 17 17 18 18 18 18 18 18 18 18 18 17 17 17 16 15 15 14 15 15 14 13 12
2 3 7 7 7 9 12 12 15 15 15 15 16 16 16 16 17 17 17 17 17 17 17 17 17 17 17 18 18 18 18 17 17 17 17 17 16 15 14 13 14 13 13 12
4 4 7 7 7 9 11 11 13 13 14 14 15 15 15 15 15 15 15 15 16 16 16 17 17 17 17 17 17 17 17 17 17 17 17 16 15 15 15 13 12 12 11 12
3 5 6 8 7 9 9 11 12 12 13 13 14 14 14 14 14 14 14 14 15 15 15 15 16 16 16 17 17 17 16 16 17 17 17 16 16 15 14 12 11 10 10 10
3 5 7 8 6 8 7 10 10 11 11 12 12 13 13 13 13 13 13 13 14 14 14 14 14 14 15 15 16 16 16 17 16 17 17 16 16 15 12 10 10 9 9 8
3 5 5 4 2 4 6 8 9 9 10 11 11 11 11 11 11 12 12 13 13 13 13 13 13 13 13 13 14 14 15 16 16 16 16 15 13 13 12 10 9 7 9 7
3 5 5 4 3 5 6 7 7 9 10 10 10 9 9 9 10 11 11 12 12 12 12 12 12 12 12 11 11 12 13 14 15 13 12 11 11 11 10 10 4 5 8 9
3 4 5 4 4 4 5 6 7 8 9 10 10 10 9 9 10 11 11 12 12 11 10 11 11 11 10 10 8 8 9 10 9 10 9 7 8 9 9 9 6 7 10 10
3 4 4 5 5 4 4 5 6 7 8 8 8 9 9 8 10 9 9 10 9 9 10 10 9 10 8 10 7 6 7 5 3 6 9 7 6 8 8 7 8 9 9 8
2 3 5 3 3 4 3 4 5 5 6 7 7 8 7 8 8 7 7 7 7 7 7 7 7 7 7 8 7 7 6 5 7 10 9 8 8 8 8 9 9 9 8 8
2 2 1 2 3 3 3 4 3 4 4 4 5 6 7 6 5 5 5 6 5 6 7 7 7 7 7 7 6 6 7 8 9 8 8 8 8 8 8 8 7 7 7 6
1 1 2 2 2 2 2 2 2 2 2 3 4 5 5 5 4 4 5 5 5 5 5 6 6 6 7 7 8 7 7 7 7 7 7 7 6 6 6 5 5 5 5 5
-0 -0 -1 -1 0 1 1 0 1 1 2 2 2 3 3 3 3 3 4 4 4 5 5 5 5 5 5 5 6 6 6 6 6 7 7 5 5 5 4 4 4 4 3 3
0 0 -0 1 -0 -0 0 0 0 1 1 1 1 1 1 0 1 1 2 2 3 4 4 5 5 5 5 4 5 5 4 5 5 5 5 5 5 5 4 4 4 4 4 3
-1 -1 -1 -0 1 -0 -0 0 0 0 0 0 0 0 0 1 1 1 1 1 2 2 3 4 4 4 4 4 4 4 4 3 3 4 3 3 3 3 3 3 3 3 3 2
-1 -1 -1 -1 -1 -1 -1 -0 0 -0 -0 -1 -0 -0 -0 -0 0 1 1 1 1 2 2 2 1 2 3 2 2 3 2 2 2 2 2 2 3 2 2 2 2 2 2 2
-1 -1 -2 -1 -1 -1 -1 -2 -1 -1 -1 -1 -1 -1 -1 -1 -1 -1 -1 -1 -0 0 0 0 1 0 0 1 1 1 2 2 2 2 1 1 2 2 2 1 2 1 1 1
-1 -2 -1 -1 -1 -1 -1 -2 -2 -1 -1 -1 -1 -1 -1 -2 -1 -1 -1 -1 -1 -1 -1 -1 -0 -0 -0 0 -0 1 0 1 0 1 1 1 0 1 1 1 1 1 0 -1
-2 -2 -1 -1 -2 -2 -2 -2 -1 -1 -2 -2 -2 -2 -2 -2 -2 -2 -2 -2 -2 -2 -2 -2 -1 -1 -1 -1 -1 -0 -0 -0 -0 -1 -1 -1 -1 -1 -1 -0 -0 -1 -1 -1
-2 -2 -3 -3 -3 -3 -3 -3 -3 -3 -3 -2 -2 -3 -3 -3 -3 -3 -3 -3 -2 -2 -2 -3 -3 -2 -2 -1 -1 -1 -1 -2 -1 -1 -1 -0 -1 -1 -1 -1 -1 -2 -2 -2

GFSNGP_700_temp_024.txt.gz
Temp
3 5 6 7 10 11 11 12 12 12 13 14 14 15 15 17 18 17 18 18 18 19 19 19 19 18 18 18 18 17 17 16 16 16 15 14 14 14 14 14 13 13 13 13
3 4 6 7 8 9 10 10 10 12 14 14 15 15 15 16 16 17 18 18 18 19 19 19 19 19 18 18 18 18 18 17 16 16 15 15 15 15 14 14 14 13 13 13
2 3 4 7 8 9 10 10 11 11 12 13 15 15 15 16 16 17 17 17 18 18 18 18 19 18 18 18 18 18 18 18 17 16 16 15 15 15 15 15 14 14 14 13
1 2 3 7 9 11 12 12 12 12 13 14 15 15 16 16 17 17 17 17 18 18 18 18 19 18 18 18 18 17 17 18 18 17 16 16 15 15 15 15 15 14 14 14
1 3 4 7 9 10 11 13 14 14 14 14 15 16 16 17 17 17 17 17 18 18 18 18 18 18 18 18 18 18 18 18 18 17 17 16 16 15 16 15 15 15 14 14
0 2 2 7 9 9 10 10 13 14 15 15 15 15 16 16 17 17 17 17 17 17 17 18 18 18 18 18 18 18 18 18 18 18 17 17 16 15 15 15 15 15 14 14
-2 0 4 6 9 10 10 11 13 14 15 16 15 16 16 17 17 17 17 17 17 17 17 18 18 18 18 18 18 18 18 18 18 18 18 17 16 16 15 14 15 15 15 14
-4 -0 1 5 6 8 10 11 13 14 15 15 15 16 16 17 17 17 17 17 17 17 17 17 17 17 17 18 18 18 18 18 18 18 18 17 17 16 15 15 14 15 15 14
-1 -0 4 5 8 8 10 11 13 14 15 15 15 16 16 16 17 17 17 17 17 17 17 17 17 17 17 17 17 17 17 17 17 17 17 16 17 17 16 15 15 14 14 14
-2 0 2 4 8 9 10 11 11 14 15 15 16 16 16 16 17 17 17 16 16 17 17 17 17 17 17 17 17 17 17 18 17 17 16 17 17 15 16 15 16 15 12 13
-1 1 2 3 7 9 9 11 11 12 12 13 14 15 15 15 15 15 15 16 16 16 16 16 16 16 16 16 17 17 17 17 17 17 17 16 17 14 15 15 15 13 14 13
-1 1 1 3 4 7 8 10 10 11 11 12 13 14 14 14 14 14 14 15 15 15 15 15 15 15 16 16 16 16 16 16 16 17 16 16 16 16 16 16 14 13 13 13
0 0 1 2 5 6 8 9 9 10 10 11 12 12 13 13 13 13 13 13 13 13 14 14 14 14 15 15 15 15 15 16 16 16 16 16 16 16 16 16 14 13 12 11
-1 0 1 2 5 6 8 9 8 8 8 10 10 10 10 11 11 11 12 12 12 13 13 13 14 14 14 14 15 15 15 15 15 15 16 16 16 15 13 13 11 9 11 12
0 1 2 3 3 5 8 7 6 7 7 8 8 9 10 10 10 11 11 12 12 13 13 13 13 13 13 13 13 14 14 13 13 13 13 14 13 13 11 10 10 8 7 7
-0 1 2 2 4 4 7 6 3 4 4 7 8 9 9 10 10 10 11 11 11 11 11 11 11 11 11 12 12 12 13 7 8 8 8 8 9 9 9 9 8 9 7 4
1 1 2 2 2 3 1 0 2 4 5 6 6 7 7 7 7 7 8 8 8 9 9 9 9 9 9 9 10 10 9 7 8 8 3 6 7 10 11 10 8 8 6 5
2 1 2 2 2 2 1 1 2 2 4 4 4 4 5 5 5 5 5 6 6 7 7 7 8 7 7 8 8 7 8 6 5 6 5 6 9 10 9 8 8 8 5 6
1 1 1 1 0 1 1 2 3 3 3 3 2 3 3 4 4 4 4 4 5 5 5 5 6 6 5 6 6 6 6 6 6 6 6 7 7 6 7 6 6 5 6 6
0 0 1 0 1 1 2 2 2 2 2 2 2 2 2 2 2 3 3 4 4 4 5 5 5 5 5 5 5 5 5 6 6 6 6 5 5 6 5 5 5 5 4 4
-0 -1 -1 -0 -1 -0 -0 0 1 0 0 -0 -0 -0 0 1 1 1 1 2 3 3 3 4 4 4 5 5 4 4 4 4 5 5 5 5 4 4 5 5 4 3 3 3
-2 -2 -2 -1 -0 -0 -1 -0 -1 -1 -1 -1 -1 -0 -0 -0 0 0 1 1 1 1 1 2 2 3 3 3 4 3 3 3 3 3 3 3 3 4 4 4 3 2 2 3
-2 -2 -1 -1 -2 -1 -1 -1 -1 -1 -1 -1 -1 -1 -1 -1 -1 -1 0 0 -0 -0 0 1 1 2 2 2 2 2 2 2 2 2 1 1 1 2 2 2 2 2 2 3
-2 -2 -2 -2 -2 -1 -1 -1 -1 -1 -1 -1 -1 -2 -2 -2 -2 -1 -1 -1 -1 -1 -1 -1 -1 -0 -0 1 1 1 1 1 1 1 1 0 1 1 1 0 1 1 1 1
-2 -3 -2 -2 -2 -2 -2 -2 -3 -2 -2 -2 -2 -2 -2 -2 -2 -3 -2 -2 -2 -1 -1 -1 -1 -1 -1 -0 0 0 0 0 1 1 0 0 0 0 0 0 0 1 1 1
-3 -3 -3 -3 -3 -3 -3 -3 -2 -3 -3 -3 -3 -3 -3 -3 -3 -3 -3 -2 -2 -2 -2 -2 -2 -1 -1 -1 -1 -1 -1 -1 -0 -0 -0 -1 -1 -1 -1 -1 -1 -1 -1 -1
-4 -4 -4 -4 -4 -4 -3 -3 -3 -3 -3 -3 -3 -3 -3 -4 -4 -4 -4 -4 -4 -4 -4 -3 -3 -2 -2 -2 -2 -2 -2 -2 -2 -2 -1 -1 -1 -1 -2 -1 -2 -1 -1 -2

GFSNGP_700_temp_030.txt.gz
Temp
9 7 8 12 13 13 14 14 15 16 16 15 15 15 14 14 15 16 16 17 17 17 18 18 18 18 18 18 18 17 17 17 16 16 16 15 15 14 13 13 13 13 13 13
6 7 7 8 9 10 12 13 14 14 15 15 15 13 14 13 15 15 16 16 16 17 17 17 18 18 18 19 18 18 17 17 17 16 16 16 15 15 14 14 14 14 14 14
7 7 7 7 8 9 10 10 11 12 12 12 13 13 13 15 16 16 16 16 16 16 17 17 17 18 18 19 17 18 17 18 17 17 17 16 16 16 15 15 15 15 15 15
6 7 7 10 11 10 10 10 11 11 11 11 12 12 12 13 14 15 16 17 16 16 16 17 17 18 18 18 19 19 18 18 18 18 17 17 16 17 16 16 15 15 15 15
4 6 8 9 8 8 9 10 10 11 11 11 11 12 12 13 15 15 16 17 17 17 16 17 17 17 18 18 19 19 19 19 18 17 17 17 17 17 17 16 15 15 15 15
4 5 8 9 9 7 8 9 9 9 9 10 10 12 13 13 13 14 15 16 16 17 17 17 17 18 18 18 19 19 19 19 18 18 17 17 17 17 17 16 16 15 15 15
1 3 5 7 6 5 7 9 8 7 8 8 11 11 13 13 14 16 16 16 16 17 17 17 17 17 18 18 18 18 18 18 18 18 18 17 17 17 17 16 16 16 15 15
0 2 4 4 5 5 6 5 5 7 8 10 11 12 14 14 14 15 16 16 16 17 17 17 17 17 17 18 18 18 18 18 18 18 18 18 18 18 17 17 17 17 16 16
1 2 2 2 3 4 4 7 7 9 10 11 11 12 13 14 14 15 15 16 16 16 17 17 17 17 17 17 17 18 18 18 18 18 18 18 18 18 17 17 17 17 17 17
-1 -1 0 0 0 4 3 6 7 8 9 9 11 13 13 13 14 15 15 16 16 16 17 17 17 17 17 17 17 17 18 18 18 18 18 18 18 18 18 18 18 17 17 16
-2 -2 -1 -1 -1 0 1 3 6 8 9 9 11 13 12 13 14 14 15 15 15 16 16 17 17 17 17 17 17 17 17 17 17 17 17 17 17 17 17 17 17 17 16 15
-2 -2 -2 -2 -2 0 1 3 5 6 8 9 11 12 12 13 13 14 15 15 15 15 16 16 17 17 17 17 17 17 17 17 17 17 17 17 17 17 17 17 17 16 16 16
-4 -4 -3 -3 -3 -1 -2 3 5 4 6 10 10 11 12 13 12 13 13 13 13 14 15 16 16 17 17 17 17 17 17 17 17 17 16 16 16 17 17 16 16 16 16 15
-4 -5 -4 -4 -1 -0 1 2 3 4 5 7 7 8 10 10 9 10 11 12 12 12 13 13 14 14 14 15 15 15 15 15 15 15 15 15 15 15 15 16 16 15 15 15
-2 -4 -4 -3 -3 -1 1 2 3 4 5 5 6 7 7 8 8 9 10 11 11 12 12 12 13 13 14 14 14 14 14 14 15 15 15 15 14 14 14 14 15 15 14 13
-3 -3 -2 -2 -1 0 1 1 3 4 4 5 5 6 7 8 9 10 10 10 11 11 11 11 12 12 12 13 13 13 13 13 13 13 13 13 13 13 13 14 13 12 12 11
1 -0 -1 -1 -0 2 1 3 3 3 5 4 5 5 6 6 8 9 9 9 9 9 10 10 10 10 10 11 12 12 11 11 12 11 12 12 12 12 11 12 10 7 6 7
-1 -1 -1 -0 0 1 2 3 3 4 5 5 5 5 4 4 6 6 7 8 8 8 8 8 8 7 7 8 9 9 10 10 10 10 10 10 9 9 9 9 8 7 5 6
-1 -1 -0 1 1 0 2 3 1 0 1 3 4 4 4 4 5 5 5 6 7 6 6 7 7 6 6 6 7 7 8 8 8 7 7 7 7 7 7 7 7 7 6 6
-1 -0 -1 -1 -0 1 1 1 1 0 2 2 1 2 3 3 3 3 4 4 4 5 5 6 5 5 5 6 6 6 6 7 6 6 6 6 6 6 6 6 6 6 5 4
-2 -1 -1 -2 -2 -1 0 -0 -0 -1 -0 1 1 1 1 1 1 2 2 3 3 3 3 3 3 4 4 4 5 5 5 5 5 5 4 4 5 6 6 6 5 5 5 5
-2 -2 -2 -2 -1 -1 -1 -1 -1 -2 -2 -1 -0 -1 -1 -0 0 0 1 2 1 1 1 2 2 3 3 3 3 3 3 3 3 4 3 3 4 4 4 4 4 4 4 4
-3 -3 -3 -2 -2 -2 -2 -2 -2 -2 -2 -2 -2 -2 -2 -1 -1 -1 0 0 -0 -1 -0 1 1 1 1 2 2 2 2 2 2 2 3 2 3 2 3 3 3 3 3 3
-3 -3 -3 -3 -3 -3 -2 -2 -2 -1 -2 -2 -2 -2 -2 -1 -1 -1 -1 -1 -1 -1 -1 -0 -0 -0 0 1 1 1 1 1 1 2 2 2 1 1 1 2 2 2 2 2
-3 -4 -3 -3 -2 -2 -2 -2 -3 -3 -3 -3 -2 -2 -2 -2 -2 -1 -2 -2 -2 -1 -1 -1 -0 0 0 1 1 1 0 0 0 0 1 1 1 0 -0 0 0 0 0 0
-4 -4 -3 -3 -3 -3 -3 -3 -3 -3 -3 -3 -3 -3 -3 -3 -3 -2 -2 -1 -2 -1 -1 -1 -1 -1 -1 -0 -0 -0 -1 -1 -1 -0 -0 -0 0 -0 -0 -0 -0 -0 -0 -1
-5 -5 -5 -4 -4 -4 -4 -4 -4 -4 -4 -4 -4 -5 -4 -4 -3 -3 -3 -2 -2 -2 -2 -2 -1 -1 -1 -1 -1 -1 -1 -1 -1 -1 -1 -1 -1 -1 -1 -1 -1 -1 -1 -1

GFSNGP_700_temp_033.txt.gz
Temp
13 16 15 16 15 16 16 17 18 19 18 18 17 16 16 16 16 16 15 16 16 16 16 16 15 17 18 17 17 17 17 17 17 16 16 15 15 15 14 14 14 13 13 14
11 13 12 12 15 16 16 16 17 17 19 18 17 17 16 16 15 15 15 15 15 15 15 17 18 18 18 18 18 17 17 17 17 16 16 16 16 15 15 15 15 14 14 14
10 11 11 11 13 15 16 16 16 16 17 18 17 16 15 15 14 14 14 15 15 15 15 17 18 18 18 18 17 18 18 18 17 17 17 17 16 16 16 16 15 15 14 14
8 9 11 12 13 13 14 14 15 15 15 15 15 14 14 14 14 14 16 16 15 16 16 16 16 16 17 18 18 18 18 18 18 17 17 17 17 17 16 16 16 15 15 14
7 10 12 12 12 12 12 12 13 13 13 13 13 13 13 13 13 14 14 15 15 16 16 16 16 15 15 17 18 18 18 19 18 18 18 17 17 17 17 17 16 16 16 15
6 9 11 11 11 10 11 12 12 12 12 12 13 13 14 14 14 14 14 14 15 15 15 15 16 16 17 17 18 18 18 19 18 19 18 18 17 17 17 17 17 16 16 16
4 6 8 10 10 10 10 10 11 12 11 11 11 11 12 13 14 14 14 15 14 14 15 16 16 17 17 17 17 18 18 18 19 19 19 18 18 17 17 17 16 16 16 16
4 5 6 7 7 9 8 7 6 7 7 7 7 7 10 13 14 14 14 15 15 15 16 16 16 17 17 17 17 18 18 18 18 19 19 18 18 17 17 17 17 17 17 16
4 5 5 5 5 6 5 4 5 4 4 5 5 6 10 13 14 14 13 14 15 15 16 16 16 17 17 17 17 17 17 18 18 18 18 18 18 17 17 17 17 17 17 17
2 2 2 3 3 4 4 3 3 3 4 7 8 8 11 11 12 13 14 14 15 15 16 16 16 17 17 17 17 17 17 17 18 18 18 18 18 18 18 18 18 18 18 18
0 1 1 1 1 1 2 3 3 6 6 8 9 10 11 12 12 13 13 14 15 15 15 16 16 17 17 17 17 17 17 17 17 17 17 18 17 17 17 17 17 17 17 17
-1 -0 -0 0 0 1 1 2 6 7 7 8 9 9 11 12 11 12 14 14 14 15 15 16 16 16 17 17 17 17 17 17 17 17 17 17 17 17 17 17 17 17 16 16
-4 -3 -2 -2 -2 -1 -1 -0 1 6 7 9 8 8 10 10 11 12 12 13 13 14 15 15 16 16 16 16 17 17 17 17 17 17 16 16 17 17 16 16 16 16 16 15
-3 -4 -3 -2 -3 -2 -2 -1 -1 1 6 8 9 9 10 11 12 12 12 12 12 13 14 14 14 15 16 16 16 16 15 15 15 16 16 15 15 15 15 15 15 15 15 15
-0 -2 -2 -3 -3 -3 -3 -3 -3 -1 2 3 3 8 9 10 10 10 10 10 11 12 13 13 13 14 14 14 14 14 14 14 14 14 14 15 15 15 15 15 15 15 15 15
1 -1 -2 -2 -2 -3 -2 -1 0 -1 0 1 3 5 6 6 7 7 7 8 9 10 11 11 12 12 13 13 13 14 14 14 14 14 14 14 15 15 15 14 14 14 14 14
-2 -1 -1 -1 -0 -1 -0 0 1 1 0 3 5 6 4 6 6 5 6 7 8 9 10 10 11 12 12 12 12 12 12 12 12 12 13 12 12 12 13 13 13 13 12 12
-1 -2 -2 -1 -1 -1 0 0 1 2 3 5 5 5 5 5 5 5 6 6 7 8 9 9 9 10 10 10 10 11 11 10 10 10 10 10 11 11 11 11 11 10 10 10
-2 -2 -2 -0 -0 0 0 1 2 2 3 4 4 4 4 5 5 5 5 5 6 6 7 7 8 8 7 7 6 7 8 8 8 8 8 8 9 9 8 8 8 8 8 8
-2 -2 -2 -0 -0 -1 -1 0 1 1 2 3 2 3 4 4 4 3 3 4 5 5 5 5 6 6 6 6 6 6 7 7 6 7 7 7 7 7 7 7 7 7 7 6
-3 -2 -2 -2 -2 -2 -2 -2 -0 0 -0 1 0 -0 -0 0 1 1 2 2 3 3 3 4 4 4 5 5 5 5 6 7 5 5 5 6 6 6 6 6 6 6 6 6
-4 -3 -4 -2 -2 -2 -2 -3 -3 -3 -2 -1 -1 -1 -1 -1 -0 -0 -0 -0 -0 0 0 2 3 3 3 4 5 5 4 3 3 4 4 4 5 5 4 5 5 4 5 5
-4 -4 -4 -3 -3 -3 -3 -2 -2 -2 -2 -2 -2 -3 -2 -2 -2 -2 -1 -1 -0 -0 -0 0 1 2 2 2 3 3 3 3 2 2 2 2 3 3 3 3 3 3 3 4
-5 -4 -4 -4 -3 -3 -2 -2 -2 -2 -2 -3 -2 -2 -2 -2 -2 -2 -2 -1 -1 -1 -0 0 0 0 1 1 1 2 1 1 2 2 2 1 2 2 2 2 2 1 2 2
-4 -5 -3 -3 -5 -5 -4 -4 -3 -3 -2 -1 -1 -1 -1 -1 -1 -1 -1 -1 -1 -0 -1 -1 -0 0 1 1 1 0 0 1 0 0 0 0 1 1 0 0 0 1 1 1
-3 -4 -6 -4 -4 -4 -6 -6 -4 -4 -4 -3 -3 -2 -2 -2 -1 -1 -1 -1 -0 -1 -1 -1 -1 -1 -1 -1 -0 -0 -0 -1 -1 -1 -0 -0 -0 -0 -0 -0 -0 -0 -0 -0
-7 -5 -6 -6 -6 -6 -5 -5 -5 -4 -4 -4 -4 -3 -3 -3 -3 -3 -2 -2 -2 -2 -2 -2 -1 -2 -2 -2 -2 -1 -1 -1 -1 -2 -2 -2 -1 -1 -1 -1 -1 -1 -1 -1